778  
ASUS44 KHUN 232010  
RWRHUN  
 
WEATHER ROUNDUP FOR THE TENNESSEE VALLEY  
NATIONAL WEATHER SERVICE HUNTSVILLE AL  
200 PM CST SUN FEB 23 2020  
 
ALZ001>004-232100-  
NORTHWEST ALABAMA  
 
CITY SKY/WX TMP DP RH WIND PRES REMARKS
 
SHOALS AIRPORT CLOUDY 57 33 40 SW7 30.17F  

 
 
ALZ005>007-016-232100-  
NORTH CENTRAL ALABAMA  
 
CITY SKY/WX TMP DP RH WIND PRES REMARKS
 
DECATUR AP CLOUDY 52 34 50 S7 30.19F  
HUNTSVILLE AP CLOUDY 52 34 50 S5 30.18F  
HUN NWS/UAH N/A 52 35 52 SE3 N/A  
MERIDIANVILLE LGT RAIN 52 35 51 SE5 30.18F  
VINEMONT AP FAIR 53 30 41 SE5 30.20F  

 
 
ALZ008>010-232100-  
NORTHEAST ALABAMA  
 
CITY SKY/WX TMP DP RH WIND PRES REMARKS
 
ALBERTVILLE PTSUNNY 52 28 40 SW3 30.19F  
FORT PAYNE CLOUDY 53 32 44 SW6 30.19F  
SCOTTSBORO AP DRIZZLE 52 34 50 CALM 30.21F  

 
 
TNZ076-096-097-232100-  
SOUTHEASTERN MIDDLE TENNESSEE  
 
CITY SKY/WX TMP DP RH WIND PRES REMARKS
 
FAYETTEVILLE PTSUNNY 52 32 46 S8 30.17F  
TULLAHOMA MOSUNNY 52 32 46 S7G13 30.16F  
WINCHESTER PTSUNNY 52 30 43 W6 30.17F  

 
   
..SURROUNDING SITES
 
 
 
CITY SKY/WX TMP DP RH WIND PRES REMARKS
 
ATLANTA PTSUNNY 56 24 29 CALM 30.21F  
ANNISTON CLOUDY 54 29 38 NW3 30.21F  
BIRMINGHAM CLOUDY 56 30 37 S10 30.22F  
CHATTANOOGA CLOUDY 55 30 38 SW6 30.21F  
CORINTH CLOUDY 54 36 50 S9 30.16S  
DALTON CLOUDY 54 25 32 CALM 30.24F  
GADSDEN FAIR 54 31 41 VRB5 30.21F  
GOLDEN TRNGL CLOUDY 55 43 63 SW7 30.20F  
HALEYVILLE CLOUDY 54 37 52 SW7 30.20F  
JACKSON TN CLOUDY 52 38 58 S5 30.15F  
MEMPHIS LGT RAIN 49 43 80 S8 30.16F  
NASHVILLE CLOUDY 55 29 36 SW12 30.14F  
OXFORD MS LGT RAIN 50 39 66 S6 30.19F  
ROME CLOUDY 54 28 36 SW3 30.22F  
SAVANNAH CLOUDY 55 36 47 S6 30.15S  
SELMER CLOUDY 54 36 50 VRB5 30.15F  
TUPELO CLOUDY 56 39 53 S7 30.18F  
TUSCALOOSA CLOUDY 57 39 51 SW5 30.21F  

 
 
 
 
CLICK HERE TO GO TO PREVIOUS BULLETINS.

The Nexlab AL Page
The Nexlab TN Page Main Text Page